TIANMU-1 22

Last updated on Tue Sep 16 2025 00:02:23 GMT+0000 (Coordinated Universal Time)

1 58663U 23208D 25258.57852606 .00008531 00000+0 34039-3 0 9992 2 58663 97.4329 10.0677 0003437 216.6804 143.4199 15.25414746 95384
UTC large
Height (km)
Speed (km/s)
/
Latitude / Longitude
Inclination (degrees)
Orbital Period (minutes)
Azimuth
Elevation
Range (km)
Doppler Factor

Next 0 passes for location: London (51.5072 / 0.1276)

Sorry there are no passes over London.